This is the latest recevied weather packets stored in our database for station/object OE-11372. If no packets are shown the sender has not sent any weather packets the latest 10 day(s).
| Time | Temp. | Humidity | Pressure | Rain* | Wind** | Luminosity | Snow |
|---|---|---|---|---|---|---|---|
| 1787894703 | 15.56° C | 81% | 851.7 hPa | 0 mm | - | 74 W/m² | - |
| 1787893876 | 15° C | 81% | 851.7 hPa | 0 mm | - | 41 W/m² | - |
| 1787893503 | 15° C | 82% | 851.7 hPa | 0 mm | - | 16 W/m² | - |
| 1787892903 | 15° C | 82% | 851.7 hPa | 0 mm | - | 8 W/m² | - |
| 1787892075 | 15° C | 81% | 851.6 hPa | 0 mm | - | 0 W/m² | - |
| 1787891702 | 15.56° C | 80% | 851.6 hPa | 0 mm | - | 0 W/m² | - |
| 1787891103 | 15.56° C | 80% | 851.7 hPa | 0 mm | - | 0 W/m² | - |
| 1787890275 | 15° C | 81% | 851.8 hPa | 0 mm | - | 0 W/m² | - |
| 1787889902 | 15.56° C | 80% | 851.6 hPa | 0 mm | - | 0 W/m² | - |
| 1787889303 | 15.56° C | 79% | 851.8 hPa | 0 mm | - | 0 W/m² | - |
| 1787888702 | 15.56° C | 79% | 851.7 hPa | 0 mm | - | 0 W/m² | - |
| 1787888102 | 15.56° C | 79% | 851.9 hPa | 0 mm | - | 0 W/m² | - |
| 1787887502 | 15.56° C | 79% | 852.1 hPa | 0 mm | - | 0 W/m² | - |
| 1787886675 | 15.56° C | 79% | 851.8 hPa | 0 mm | - | 0 W/m² | - |
| 1787886302 | 15.56° C | 78% | 852.1 hPa | 0 mm | - | 0 W/m² | - |
| 1787885703 | 15.56° C | 78% | 851.9 hPa | 0 mm | - | 0 W/m² | - |
| 1787884876 | 16.11° C | 78% | 852.2 hPa | 0 mm | - | 0 W/m² | - |
| 1787884503 | 16.11° C | 78% | 852 hPa | 0 mm | - | 0 W/m² | - |
| 1787883903 | 16.11° C | 78% | 851.9 hPa | 0 mm | - | 0 W/m² | - |
| 1787883076 | 16.11° C | 78% | 852.2 hPa | 0 mm | - | 0 W/m² | - |
| 1787882703 | 16.11° C | 77% | 852.2 hPa | 0 mm | - | 0 W/m² | - |
| 1787882103 | 16.67° C | 76% | 852.2 hPa | 0 mm | - | 0 W/m² | - |
| 1787881276 | 16.11° C | 78% | 852.2 hPa | 0 mm | - | 0 W/m² | - |
| 1787880903 | 16.11° C | 77% | 852.3 hPa | 0 mm | - | 0 W/m² | - |
| 1787880303 | 16.67° C | 76% | 852.3 hPa | 0 mm | - | 0 W/m² | - |
* Rain latest hour (hover to see other rain measurements)
** Current wind speed in m/s (hover to see current wind gust speed)